[[{"header":{"parameterUnit":"m.s-1","parameterCategory":1,"la1":30.2991,"la2":30.254,"lo1":-89.0895,"lo2":-89.0444,"dy":0.0017,"dx":0.0017,"nx":28,"ny":28,"refTime":"2025-05-19T09:00:00:Z","depth":0,"parameterNumber":2,"parameterNumberName":"U-component_of_WINDS"},"data":[0,0,0,0,0,0,0,0,0,0,0,0,0,0,0,0,0,0,0,0,0,0,0,0,0,0,0,0,0,0,0,0,0,0,0,0,0,0,0,0,0,0,0,0,0,0,0,0,0,0,0,0,0,0,0,0,0,0,1.0925,1.0925,0,1.0958,1.0959,1.0959,1.0961,1.0961,1.096,1.096,1.0992,1.0993,1.0994,0,0,0,0,0,0,0,0,0,0,0,0,0,1.086,1.0861,1.0925,1.0925,1.0926,1.0958,1.0959,1.0959,1.0961,1.0961,1.096,1.096,1.0991,1.0993,1.0994,0,0,0,0,0,0,0,0,0,0,0,0,0,1.089,1.0861,1.0925,1.0931,1.0932,1.0958,1.0959,1.0959,1.0961,1.096,1.096,1.0959,1.0991,1.0993,1.0994,1.1017,0,0,1.1,1.1001,0,0,0,0,0,0,0,0,1.0888,1.0892,1.0929,1.093,1.0931,1.0955,1.0947,1.0978,1.0961,1.095,1.096,1.0959,1.098,1.0982,1.099,1.1018,1.102,1.1,1.1001,1.1002,1.1002,0,0,0,0,0,0,0,1.0886,1.0891,1.0938,1.093,1.0931,1.093,1.0934,1.0953,1.0967,1.0951,1.0951,1.0955,1.098,1.0988,1.0991,1.102,1.1,1.1002,1.1003,1.1003,1.1066,1.1067,0,0,0,0,0,0,1.0883,1.0889,1.0937,1.0939,1.0908,1.0932,1.0936,1.0948,1.0967,1.097,1.0955,1.0955,1.0985,1.0988,1.0992,1.1018,1.1002,1.1003,1.1005,1.1065,1.1066,1.1067,0,0,0,0,0,0,1.0882,1.0888,1.0936,1.0914,1.092,1.0934,1.0947,1.0949,1.0957,1.0971,1.0973,1.0961,1.0985,1.0989,1.101,1.1019,1.1004,1.1006,1.1065,1.1066,1.1066,1.1071,0,0,0,0,0,0,1.088,1.0887,1.0897,1.0914,1.0921,1.0955,1.0948,1.095,1.096,1.096,1.0977,1.0979,1.0985,1.1007,1.1012,1.1021,1.1007,1.1064,1.1065,1.1066,1.107,1.1072,1.1073,0,0,0,0,0,1.0878,1.0897,1.0897,1.0903,1.0934,1.0955,1.0959,1.0966,1.0961,1.097,1.0979,1.0978,1.1017,1.101,1.1015,1.1024,1.1063,1.1065,1.1066,1.1069,1.1071,1.1073,0,0,0,0,0,0,1.0879,1.0899,1.09,1.0925,1.0939,1.0955,1.0967,1.0968,1.0983,1.0982,1.0989,1.0993,1.1013,1.1021,1.1012,1.1046,1.104,1.1042,1.104,1.1042,1.1044,1.1041,1.1009,0,0,0,0,0,1.0882,1.0899,1.0915,1.0936,1.0942,1.0954,1.0963,1.0967,1.0981,1.0986,1.0997,1.1009,1.1024,1.1034,1.1048,1.1071,1.1074,1.108,1.1082,1.1083,1.1085,1.1095,1.1098,1.1071,1.1071,1.1071,0,0,1.0889,1.0902,1.0912,1.0936,1.0947,1.0963,1.0958,1.0976,1.0987,1.0989,1.1009,1.1017,1.1031,1.1053,1.1063,1.106,1.1093,1.1085,1.1086,1.1087,1.1097,1.11,1.1102,1.1072,1.1072,1.1072,0,0,1.091,1.0922,1.094,1.095,1.0967,1.0974,1.0978,1.0994,1.1,1.102,1.1021,1.1034,1.106,1.107,1.1078,1.11,1.11,1.1105,1.1113,1.1124,1.1126,1.1128,1.1134,1.1136,1.1107,1.1107,1.1107,0,1.0916,1.0941,1.0948,1.0965,1.0975,1.0978,1.0995,1.1004,1.1024,1.103,1.1027,1.1059,1.1069,1.1091,1.1097,1.1104,1.1108,1.1103,1.1125,1.1127,1.1129,1.1135,1.1138,1.1107,1.1107,1.1107,1.1107,0,1.0946,1.0963,1.0976,1.0995,1.1006,1.1023,1.1032,1.1042,1.1045,1.1052,1.1071,1.1083,1.11,1.1105,1.1108,1.1128,1.1126,1.1124,1.1117,1.1132,1.1137,1.114,1.1108,1.1107,1.1107,1.1107,0,0,1.0969,1.0992,1.0996,1.1004,1.1021,1.1034,1.105,1.1066,1.1074,1.1088,1.11,1.1121,1.1119,1.1128,1.1132,1.1142,1.1156,1.1138,1.1139,1.114,1.1177,1.1178,1.118,1.1156,1.1157,1.1157,1.1175,0,1.099,1.102,1.1026,1.1051,1.1066,1.1068,1.1082,1.1093,1.11,1.1112,1.1119,1.1134,1.1131,1.1136,1.1145,1.1153,1.1164,1.1151,1.1167,1.1167,1.1163,1.1184,1.1185,1.1201,1.1178,1.1178,1.1178,0,1.1019,1.1033,1.1059,1.1073,1.108,1.1092,1.1107,1.1119,1.1131,1.1135,1.1145,1.1148,1.1163,1.1156,1.1177,1.1168,1.1175,1.1179,1.118,1.1181,1.1173,1.1184,1.1207,1.1209,1.1182,1.1182,1.1182,0,1.1031,1.1056,1.1075,1.1082,1.1099,1.1108,1.1115,1.1127,1.1136,1.1148,1.1153,1.1167,1.1175,1.1185,1.119,1.1185,1.121,1.1204,1.1212,1.1212,1.1217,1.1216,1.124,1.1223,1.1223,1.1223,1.1223,0,1.1053,1.1069,1.108,1.1092,1.1109,1.1115,1.1132,1.1139,1.1149,1.1161,1.1164,1.1175,1.1182,1.1193,1.1198,1.1213,1.1217,1.1219,1.122,1.1219,1.1218,1.1223,1.1221,1.1223,1.1223,1.1223,1.1223,0,1.1069,1.1078,1.1098,1.1112,1.1116,1.1128,1.114,1.115,1.1156,1.1171,1.1175,1.1185,1.1198,1.1205,1.1222,1.1225,1.1241,1.1242,1.1237,1.1237,1.1245,1.1244,1.1271,1.1275,1.1256,1.1257,1.1257,0,1.1082,1.1094,1.111,1.1118,1.1126,1.1139,1.1148,1.1155,1.1164,1.1178,1.1186,1.12,1.1211,1.1232,1.124,1.1253,1.1253,1.1262,1.1255,1.1252,1.1252,1.125,1.1251,1.1263,1.1263,1.1263,1.1263,0,1.1104,1.1107,1.1121,1.1135,1.1145,1.1157,1.1168,1.1174,1.1182,1.1192,1.1206,1.1215,1.1231,1.1244,1.1257,1.1264,1.1264,1.1265,1.1268,1.1266,1.1262,1.1263,1.1239,1.1264,1.1264,1.1264,1.1264,1.1264,1.1118,1.1128,1.1141,1.1155,1.1164,1.1174,1.1184,1.1191,1.1203,1.1218,1.1221,1.1235,1.1245,1.1263,1.127,1.128,1.1278,1.1282,1.1283,1.1283,1.1283,1.1261,1.1283,1.1283,1.1282,1.1282,1.1282,0,1.1139,1.1147,1.116,1.1175,1.1186,1.1186,1.1198,1.1206,1.1219,1.1229,1.124,1.1255,1.1268,1.1276,1.1288,1.1295,1.1296,1.1298,1.1297,1.1298,1.1285,1.1281,1.1297,1.1297,1.1297,1.1297,1.1297,1.1297,1.1151,1.1168,1.1173,1.1193,1.1201,1.1215,1.1222,1.123,1.1238,1.1255,1.1266,1.1271,1.128,1.1293,1.1304,1.1306,1.131,1.1312,1.1314,1.1301,1.1299,1.1298,1.1294,1.1313,1.1313,1.1326,1.1327,1.1327]},{"header":{"parameterUnit":"m.s-1","parameterCategory":1,"la1":30.2991,"la2":30.254,"lo1":-89.0895,"lo2":-89.0444,"dy":0.0017,"dx":0.0017,"nx":28,"ny":28,"refTime":"2025-05-19T09:00:00:Z","depth":0,"parameterNumber":3,"parameterNumberName":"V-component_of_WINDS"},"data":[0,0,0,0,0,0,0,0,0,0,0,0,0,0,0,0,0,0,0,0,0,0,0,0,0,0,0,0,0,0,0,0,0,0,0,0,0,0,0,0,0,0,0,0,0,0,0,0,0,0,0,0,0,0,0,0,0,0,5.1197,5.1199,0,5.1298,5.1299,5.13,5.1248,5.1246,5.1243,5.1241,5.1339,5.1343,5.1348,0,0,0,0,0,0,0,0,0,0,0,0,0,5.0953,5.0958,5.1197,5.1199,5.12,5.1298,5.1299,5.1301,5.1249,5.1246,5.1242,5.1239,5.1337,5.1343,5.1349,0,0,0,0,0,0,0,0,0,0,0,0,0,5.1057,5.0959,5.1197,5.1186,5.1186,5.1298,5.1299,5.1301,5.125,5.1246,5.1242,5.1238,5.1335,5.1342,5.135,5.1477,0,0,5.1373,5.1376,0,0,0,0,0,0,0,0,5.1051,5.1066,5.1186,5.1187,5.1187,5.1257,5.1249,5.136,5.1251,5.1225,5.124,5.1236,5.1314,5.1323,5.1351,5.1481,5.1486,5.1374,5.1378,5.1382,5.1384,0,0,0,0,0,0,0,5.1044,5.1061,5.1237,5.1188,5.1189,5.1174,5.1184,5.127,5.1291,5.1227,5.1224,5.1237,5.1314,5.1344,5.1353,5.1487,5.1374,5.138,5.1385,5.1388,5.1723,5.1727,0,0,0,0,0,0,5.1038,5.1056,5.1234,5.124,5.1108,5.1181,5.1193,5.1238,5.129,5.1294,5.124,5.1234,5.1332,5.1344,5.1356,5.1506,5.1382,5.1389,5.1393,5.1719,5.1724,5.1729,0,0,0,0,0,0,5.1033,5.1055,5.123,5.1147,5.1168,5.119,5.1241,5.1242,5.1272,5.1299,5.1302,5.1267,5.133,5.1345,5.1447,5.1508,5.1392,5.1399,5.1714,5.172,5.1726,5.1808,0,0,0,0,0,0,5.1026,5.1053,5.1104,5.1149,5.1173,5.1321,5.1245,5.1247,5.1286,5.1279,5.1326,5.1329,5.1328,5.1436,5.1454,5.1517,5.1405,5.1708,5.1717,5.1724,5.1799,5.1816,5.183,0,0,0,0,0,5.1018,5.1122,5.1106,5.1128,5.1237,5.1325,5.1339,5.1336,5.1292,5.1341,5.1358,5.1328,5.1499,5.1446,5.1467,5.1533,5.1704,5.1714,5.1724,5.1792,5.1813,5.183,0,0,0,0,0,0,5.1082,5.1128,5.1111,5.1233,5.1276,5.1316,5.1378,5.1358,5.1413,5.1404,5.1397,5.1408,5.1513,5.1533,5.1474,5.1656,5.1594,5.1609,5.164,5.1659,5.1674,5.1666,5.1411,0,0,0,0,0,5.1111,5.1181,5.1216,5.132,5.1343,5.1357,5.1396,5.139,5.1433,5.145,5.1475,5.1516,5.1578,5.162,5.1679,5.1802,5.181,5.1857,5.1873,5.1885,5.1897,5.196,5.1981,5.1761,5.176,5.176,0,0,5.117,5.1204,5.1248,5.1334,5.1366,5.1437,5.1373,5.145,5.1501,5.1462,5.1559,5.1578,5.1623,5.1735,5.1786,5.1755,5.196,5.1898,5.1907,5.1912,5.1972,5.1993,5.2012,5.1767,5.1766,5.1765,0,0,5.1314,5.1348,5.1437,5.1471,5.1521,5.1529,5.1551,5.1594,5.1606,5.1703,5.1674,5.1734,5.1843,5.1876,5.1906,5.206,5.2034,5.208,5.216,5.2222,5.2239,5.2254,5.2307,5.2326,5.2092,5.2092,5.2092,0,5.1381,5.1488,5.1485,5.1565,5.1602,5.157,5.1659,5.1691,5.1757,5.1782,5.1748,5.1882,5.1911,5.2029,5.2066,5.2093,5.2115,5.2074,5.2237,5.2252,5.2266,5.2316,5.2336,5.2097,5.2097,5.2096,5.2096,0,5.1566,5.164,5.1706,5.1772,5.1817,5.19,5.1908,5.1953,5.1943,5.1954,5.2052,5.2085,5.2149,5.2177,5.2168,5.2293,5.2272,5.2238,5.2175,5.2293,5.2339,5.2358,5.2105,5.2103,5.2101,5.21,0,0,5.1754,5.1816,5.184,5.1868,5.192,5.1976,5.2057,5.2122,5.2159,5.2205,5.2271,5.2363,5.2331,5.2366,5.236,5.2414,5.2531,5.2372,5.2373,5.2399,5.2667,5.2692,5.2714,5.2514,5.2518,5.2521,5.2663,0,5.1899,5.2043,5.2042,5.2173,5.224,5.221,5.228,5.2318,5.233,5.2386,5.2399,5.2464,5.2417,5.2438,5.2491,5.2506,5.2584,5.2496,5.2572,5.2575,5.2561,5.2739,5.2766,5.2898,5.2681,5.2684,5.2686,0,5.2089,5.2142,5.2281,5.2321,5.2348,5.2412,5.2469,5.2524,5.2566,5.257,5.2609,5.2594,5.2673,5.2609,5.2716,5.2655,5.2687,5.2698,5.2703,5.2709,5.2637,5.2747,5.2941,5.296,5.2715,5.2713,5.2711,0,5.2209,5.2315,5.2411,5.2436,5.2486,5.2531,5.2553,5.2591,5.2628,5.2678,5.2702,5.2759,5.279,5.2834,5.2833,5.2787,5.2941,5.2877,5.2945,5.2945,5.2978,5.2975,5.3177,5.3001,5.3001,5.3,5.3,0,5.237,5.2456,5.2465,5.2524,5.2618,5.2614,5.2706,5.2724,5.2757,5.2817,5.2794,5.285,5.2847,5.2904,5.2904,5.2991,5.3005,5.3009,5.3008,5.3011,5.301,5.303,5.302,5.3006,5.3004,5.3003,5.3002,0,5.252,5.253,5.2632,5.2671,5.2683,5.275,5.2781,5.2836,5.2846,5.2921,5.2939,5.2954,5.3018,5.3022,5.3097,5.3097,5.3202,5.3191,5.3188,5.3186,5.3252,5.3245,5.3472,5.35,5.3308,5.331,5.3312,0,5.2622,5.2687,5.2733,5.2772,5.2797,5.286,5.2899,5.2897,5.2937,5.2988,5.3035,5.3098,5.3148,5.3252,5.3268,5.3324,5.3313,5.3389,5.3321,5.3321,5.3312,5.3307,5.3312,5.3401,5.3404,5.3405,5.3407,0,5.2801,5.2802,5.286,5.2918,5.2965,5.3011,5.3053,5.3086,5.3088,5.3135,5.3201,5.324,5.3315,5.3377,5.3431,5.3451,5.3429,5.3428,5.3446,5.3449,5.3443,5.3445,5.3222,5.3422,5.3421,5.342,5.3419,5.3418,5.2929,5.2984,5.3024,5.3088,5.312,5.3159,5.3212,5.3228,5.3284,5.3347,5.3341,5.3414,5.345,5.3521,5.3546,5.3601,5.3575,5.3602,5.3608,5.3615,5.3621,5.3436,5.3611,5.3611,5.361,5.361,5.3609,0,5.3104,5.3129,5.3187,5.3248,5.3297,5.3273,5.3318,5.336,5.3425,5.3462,5.3511,5.3586,5.3645,5.3665,5.3722,5.3762,5.3752,5.3776,5.3772,5.3777,5.3642,5.3619,5.3783,5.3783,5.3783,5.3783,5.3782,5.3782,5.3202,5.3293,5.3299,5.3405,5.3428,5.35,5.3527,5.3563,5.3592,5.3677,5.3726,5.3739,5.3769,5.3827,5.3879,5.3883,5.3904,5.3932,5.3931,5.3804,5.3787,5.377,5.3749,5.3937,5.3937,5.4061,5.4063,5.4063]}]]